[Date Prev][Date Next][Thread Prev][Thread Next] - [Date Index][Thread Index][Author Index]
2 Line ISS Keps 1-15
- Subject: [sarex] 2 Line ISS Keps 1-15
- From: "Dave Larsen PhD" <doc@xxxxxxxxxxx>
- Date: Fri, 14 Jan 2005 18:31:14 -0800
ISS
1 25544U 98067A 05015.01097481 .00023119 00000-0 17103-3 0 5897
2 25544 51.6396 324.0248 0003343 197.4420 203.5709 15.72833237351607
----
Via the sarex mailing list at AMSAT.ORG courtesy of AMSAT-NA.
To unsubscribe, send "unsubscribe sarex" to Majordomo@amsat.org
AMSAT Home